Regional Weather Roundup
Issued by NWS

Home | Current Version | Previous Version | Graphics & Text | Print | Product List | Glossary On
Versions: 1 2 3 4 5 6 7 8 9 10 11 12 13 14 15 16 17 18 19 20 21 22 23 24 25 26 27 28 29 30 31 32 33 34 35 36 37 38 39 40 41 42 43 44 45 46 47 48 49 50
545
ASUS44 KLIX 010810
RWRLA
LOUISIANA WEATHER ROUNDUP
NATIONAL WEATHER SERVICE NEW ORLEANS LA
200 AM CST SUN MAR 01 2015

NOTE: "FAIR" INDICATES FEW OR NO CLOUDS BELOW 12,000 FEET WITH NO
      SIGNIFICANT WEATHER AND/OR OBSTRUCTIONS TO VISIBILITY.
      SKY/WX - SKY CONDITION AND SIGNIFICANT WEATHER.
      TMP - AIR TEMPERATURE.    DP   - DEWPOINT TEMPERATURE.
      RH  - RELATIVE HUMIDITY.  PRES - PRESSURE.
      HX  - HEAT INDEX.         WCI  - WIND CHILL INDEX.

*  THESE STATIONS ARE NOT NWS OR FAA STATIONS AND ARE NOT UNDER
   NWS QUALITY CONTROL.

LAZ040-048-061>063-065-066-069-010900-
SOUTHEAST LOUISIANA

CITY           SKY/WX    TMP DP  RH WIND       PRES   REMARKS
N.O. AUDUBON     N/A     58  58 100 MISG        N/A
N.O. INTL ARPT CLOUDY    57  54  89 E14       30.29F FOG
N.O. LAKEFRONT CLOUDY    57  53  86 E17       30.31F
SLIDELL        CLOUDY    56  53  90 E12G17    30.31F
BATON ROUGE    CLOUDY    56  53  90 SE12      30.29F
BOOTHVILLE     CLOUDY    58  58 100 E6        30.30F FOG
BELLE CHASSE   CLOUDY    58  54  86 E13       30.30F FOG
BOGALUSA*        N/A     58  52  81 SE5       30.34S
GALLIANO*      CLOUDY    55  54  97 NE5       30.29F FOG
NEW ROADS*     CLOUDY    55  51  87 E14G20    30.28S
GONZALES*      CLOUDY    57  57 100 E3        30.29S
HAMMOND*       CLOUDY    55  52  88 E3        30.32F
HOUMA*         CLOUDY    58  57  97 E13       30.28F
PORT FOURCHON* CLOUDY    59  59 100 E10G16    30.31R FOG

$$

LAZ041-044-053-054-010900-
SOUTHWEST LOUISIANA

CITY           SKY/WX    TMP DP  RH WIND       PRES   REMARKS
LAKE CHARLES   CLOUDY    58  54  86 SE13      30.22F
LAFAYETTE      CLOUDY    57  53  86 VRB7      30.25F
PATTERSON      CLOUDY    57  54  88 E8        30.26F
SALT POINT       N/A     58  56  93 E10G17    30.23F
NEW IBERIA     CLOUDY    56  53  90 SE13      30.25F
CHENAULT AIRPK CLOUDY    56  53  89 E8        30.23F

$$

LAZ027-028-010900-
CENTRAL LOUISIANA

CITY           SKY/WX    TMP DP  RH WIND       PRES   REMARKS
FORT POLK      CLOUDY    55  48  76 SE10      30.23F
ALEXANDRIA INT CLOUDY    52  42  69 E6        30.24F
ALEXANDRIA     CLOUDY    49  41  74 CALM      30.26F

$$

LAZ001-002-010900-
NORTHWEST LOUISIANA

CITY           SKY/WX    TMP DP  RH WIND       PRES   REMARKS
SHREVEPORT     LGT RAIN  43  39  86 N8        30.27F FOG
BARKSDALE AFB  LGT RAIN  43  40  87 NE2       30.29F FOG
DTN SHREVEPORT LGT RAIN  42  37  82 VRB5      30.31R

$$

LAZ014-016-010900-
NORTHEAST LOUISIANA

CITY           SKY/WX    TMP DP  RH WIND       PRES   REMARKS
MONROE         CLOUDY    44  38  79 VRB3      30.29F
TALLULAH       CLOUDY    42  38  85 CALM      30.31S

$$




USA.gov is the U.S. government's official web portal to all federal, state and local government web resources and services.